Location: Montbazon
(47.2835°N, 0.6999°E)
Time: 17:27:30
(UTC+00:00)

SL-16 R/B - Pass Details

Date: 08 November 2025
Orbit: 841 x 844 km, 71.0° (Epoch: 09 December)

Event Time Altitude Azimuth Distance (km) Brightness Sun altitude
Exits shadow 04:06:10 20° 352° (N) 1,842 3.9 -28.1°
Drops below altitude 10° 04:08:29 10° 11° (N) 2,475 4.8 -27.7°
Sets 04:11:18 0° 23° (NNE) 3,414 5.7 -27.3°
